RH
82 83 90 89 88 85 82 72 81 95 94 98 96 96 93 90 87 84 86 99 100 100 99 91 90 96 93 93 88 78 72 68 64 73 52 63 85 72
85 89 95 94 92 86 81 83 86 83 88 88 95 98 92 85 86 86 98 98 97 98 99 94 99 98 96 93 88 82 76 69 75 84 67 69 74 84
94 96 96 97 88 85 85 88 85 88 89 92 95 94 90 87 86 86 89 90 94 96 98 99 99 99 96 93 89 82 76 76 85 90 90 95 88 93
99 99 100 99 94 90 81 76 68 74 84 89 93 90 87 86 83 85 88 89 87 89 95 97 98 100 98 93 86 81 77 80 92 88 92 99 98 100
99 99 97 98 89 81 73 74 83 83 85 85 87 89 87 86 84 75 73 78 89 91 100 99 98 100 100 94 88 83 77 83 95 96 90 94 95 95
97 95 95 87 78 78 77 81 80 83 86 83 86 88 89 89 87 84 87 98 89 92 97 100 99 100 100 99 91 86 81 87 89 99 95 93 94 95
99 98 94 87 82 77 64 75 79 81 84 86 88 89 91 94 90 92 94 95 96 92 92 98 100 100 99 99 96 88 84 89 93 99 100 98 94 86
100 100 100 95 88 72 69 75 72 79 84 85 87 87 83 86 90 92 95 98 94 98 98 96 99 99 99 100 98 95 89 88 89 97 100 99 99 99
100 99 94 87 78 73 78 79 84 84 80 77 82 83 85 86 91 92 94 96 96 98 100 97 94 94 99 99 99 97 93 88 86 89 98 100 99 93
100 96 86 79 71 68 69 71 74 76 77 78 82 84 89 91 94 95 98 99 99 98 100 100 98 95 94 100 99 99 96 91 85 87 88 87 97 98
90 79 68 64 71 74 70 73 81 85 86 85 84 85 89 90 91 100 100 100 99 98 97 100 96 94 91 88 93 97 96 94 89 82 77 80 75 84
79 77 76 70 70 72 74 76 84 84 87 88 84 82 80 80 82 86 99 100 100 99 99 99 95 92 83 83 85 87 91 91 90 87 80 90 84 80
88 88 86 85 80 80 78 76 74 79 87 88 84 84 83 78 75 76 81 95 100 99 99 97 92 86 88 81 62 79 82 79 84 92 86 92 92 82
80 78 78 80 82 84 79 78 82 85 86 87 88 89 86 76 70 66 63 63 72 89 99 100 100 95 92 94 87 73 67 68 73 89 85 86 98 90
92 90 84 82 84 85 86 87 95 94 93 92 92 93 89 76 68 64 56 57 60 63 74 93 100 100 100 98 83 72 66 62 67 84 91 80 76 89
93 88 85 82 81 80 84 86 88 96 97 96 94 91 90 79 72 73 63 59 64 60 68 74 90 100 99 100 99 96 83 64 54 66 90 94 80 75
100 100 97 95 92 93 93 91 92 94 97 92 92 91 91 88 80 81 76 76 87 74 81 75 84 95 99 99 100 98 90 78 68 68 73 94 86 79
100 100 100 100 100 100 100 99 99 98 91 84 78 84 87 84 82 85 88 98 100 100 96 83 100 96 86 70 69 73 72 66 64 75 76 85 88 77
100 100 100 100 100 100 100 100 100 100 100 100 88 83 86 84 84 88 92 95 99 99 100 95 100 100 98 94 63 70 70 70 71 76 81 85 82 60
100 100 100 100 100 100 100 100 100 100 100 100 99 98 82 79 84 90 93 92 89 98 100 100 100 99 100 91 81 86 85 81 85 80 80 78 79 75
100 100 100 100 100 100 100 100 100 100 100 100 99 99 92 89 89 88 89 96 94 98 100 91 82 91 98 100 100 97 80 73 74 75 79 86 92 83
100 100 100 100 100 100 100 100 100 100 100 100 99 99 99 99 98 99 100 99 100 99 94 86 92 97 100 96 92 98 99 84 77 70 78 82 77 86
100 100 99 100 100 99 100 100 100 100 100 100 100 100 99 99 98 98 98 98 100 100 99 97 96 100 100 99 97 99 99 100 93 93 83 75 71 72
Wind_Speed
23 20 18 16 16 14 17 13 7 3 4 5 5 6 4 2 8 11 8 6 6 6 5 6 8 9 11 11 12 14 16 19 21 23 25 23 15 19
23 21 20 20 19 16 14 14 12 9 3 8 6 10 5 4 6 9 4 4 6 7 6 9 10 9 9 10 12 13 14 17 17 22 32 20 15 23
25 24 23 24 20 17 15 16 15 14 7 8 8 8 6 5 5 6 6 5 7 9 9 9 10 10 11 10 10 10 12 13 13 17 15 7 11 20
25 27 28 24 18 17 17 16 13 12 12 11 11 10 8 7 10 8 9 9 8 9 10 12 11 11 9 9 8 8 8 9 11 11 16 12 11 21
31 31 26 23 20 18 14 15 17 15 14 11 11 10 8 7 7 7 9 10 10 11 11 11 12 9 10 9 8 7 6 5 6 8 6 4 7 13
29 27 27 24 17 16 17 18 18 17 16 13 10 9 8 7 6 8 8 9 10 10 10 11 11 11 11 9 9 7 5 3 4 5 3 3 1 4
30 27 24 24 21 19 19 23 23 21 17 15 12 9 8 6 5 3 8 10 12 10 10 10 10 10 12 12 10 8 6 4 2 3 5 5 5 4
34 28 27 22 21 21 21 21 20 22 20 16 14 11 12 9 8 7 7 5 4 3 6 6 9 11 13 13 10 9 7 6 6 6 5 7 7 7
36 33 24 23 22 19 20 19 18 17 15 15 16 15 11 13 11 9 8 7 7 10 11 11 9 12 13 15 13 11 10 7 9 9 9 9 10 10
25 24 26 24 22 22 22 19 15 13 11 10 11 9 10 9 9 9 9 8 11 12 12 6 10 11 10 15 16 14 13 11 11 11 11 10 10 11
18 20 20 21 22 21 18 16 14 12 10 9 7 6 8 8 8 9 7 6 4 4 6 9 8 8 10 11 13 15 15 13 12 12 11 10 9 10
14 15 16 17 17 18 18 18 17 15 15 13 9 8 8 8 9 9 9 9 7 3 3 6 6 4 4 6 10 13 13 13 12 12 12 12 12 14
16 17 17 17 20 19 17 16 14 13 13 11 10 9 9 10 9 8 8 9 11 12 6 6 5 5 5 4 4 9 12 11 12 13 13 12 13 13
14 14 15 17 20 19 17 15 14 13 14 14 12 11 10 10 8 8 9 9 11 13 14 11 7 10 6 3 6 6 11 11 12 15 15 15 15 13
14 15 15 19 17 16 15 13 13 15 15 14 13 11 9 7 8 8 8 9 10 11 13 16 17 17 13 9 4 5 3 7 12 15 17 16 17 18
15 14 18 20 19 18 17 15 16 18 18 16 14 10 10 10 9 7 8 9 11 12 13 13 14 16 17 19 17 18 12 5 2 11 17 18 18 19
16 17 16 18 19 20 19 17 18 18 19 18 16 14 14 11 10 9 10 9 11 9 8 6 10 13 16 19 17 20 18 17 16 12 11 17 19 17
11 17 20 23 25 25 23 21 20 19 20 18 17 15 15 15 14 14 12 11 10 10 12 6 9 8 8 14 19 22 18 15 14 15 13 14 19 20
15 15 17 18 20 21 22 25 25 25 22 21 20 21 19 17 17 18 17 14 13 12 12 9 10 9 2 3 2 6 13 15 12 11 14 16 16 13
16 17 21 24 24 24 24 26 26 25 23 24 23 23 21 21 21 20 19 19 16 12 13 11 14 16 12 5 3 1 2 5 10 12 14 15 17 16
19 20 21 22 24 24 24 23 23 22 22 22 26 25 24 22 22 21 20 20 17 15 13 16 15 9 10 11 8 9 12 10 9 10 9 12 15 12
12 14 19 21 22 21 22 20 21 22 23 23 26 25 24 23 23 22 19 19 22 20 17 12 8 7 11 11 10 9 9 8 8 9 13 14 6 4
12 12 13 13 16 19 20 21 21 21 23 25 26 24 23 23 22 21 19 17 17 17 19 17 13 12 12 12 11 10 10 14 12 11 14 14 17 21
Wind_Direction
193 199 198 196 196 192 211 216 172 175 233 189 179 175 168 306 305 304 307 309 318 323 315 290 285 275 273 273 297 309 315 318 321 322 312 311 269 216
193 190 191 191 178 175 208 213 204 195 195 191 193 193 210 269 317 326 322 297 291 283 284 277 276 272 280 286 296 305 316 314 328 332 329 303 239 197
194 195 196 188 173 184 201 215 205 202 181 199 197 203 220 250 284 298 279 280 279 281 272 265 269 274 280 288 297 309 312 329 336 360 1 24 178 174
196 186 187 185 174 191 191 205 201 198 199 197 203 210 223 261 288 298 284 264 259 262 269 273 273 277 274 280 292 304 322 334 341 357 35 83 161 155
190 186 189 191 171 186 195 198 202 202 209 201 204 213 227 246 275 295 310 295 273 269 266 267 269 267 271 280 284 285 304 323 346 341 352 17 61 119
200 201 204 198 195 192 197 201 203 199 212 213 213 223 234 246 275 301 308 310 305 289 270 261 258 247 259 270 274 286 301 348 343 328 331 324 85 134
207 211 216 211 209 201 204 205 204 200 202 207 213 218 234 230 243 267 291 301 300 290 283 263 255 242 240 251 259 257 256 266 243 213 202 200 189 192
203 200 201 198 200 190 195 209 211 202 204 212 215 223 235 235 238 240 264 288 306 339 321 320 270 246 238 248 251 252 253 247 249 251 235 231 207 200
203 190 178 189 193 188 194 199 201 208 221 226 218 223 229 223 225 224 242 258 269 299 314 298 281 268 246 245 242 239 246 243 252 250 250 239 214 199
193 185 185 189 192 191 189 189 195 205 212 219 231 225 226 218 222 242 252 264 279 286 282 277 285 281 274 250 247 244 239 234 234 242 246 240 235 212
197 197 194 191 191 191 192 191 197 201 209 211 216 211 207 217 231 236 231 240 276 283 267 247 270 275 269 262 252 245 241 237 234 235 236 239 233 218
194 192 196 200 198 197 197 195 196 199 196 197 193 204 214 219 223 229 217 219 222 294 254 229 284 258 295 270 244 240 237 233 231 232 230 223 222 213
220 210 208 201 200 202 205 202 198 192 192 196 206 218 229 228 226 229 233 225 227 240 257 219 271 252 243 291 298 237 231 233 232 226 227 217 226 227
241 235 221 212 206 204 202 199 195 190 188 194 204 220 227 232 228 227 233 237 241 238 239 241 234 233 218 254 249 245 232 232 231 231 233 217 211 227
254 246 238 226 215 214 214 210 202 206 202 205 220 231 231 229 224 232 235 242 247 252 252 240 245 252 254 235 251 251 260 251 241 235 234 231 226 218
253 246 234 227 224 226 220 215 215 217 218 218 226 219 223 221 226 238 244 245 249 247 247 249 233 242 245 246 247 256 255 259 268 244 240 240 236 229
258 242 227 223 223 225 225 226 224 222 224 228 232 225 225 232 233 240 243 236 239 249 236 249 242 239 240 250 254 252 253 254 259 263 247 240 235 231
254 245 238 231 229 231 232 232 232 229 230 236 238 238 230 226 230 232 233 232 240 252 254 230 238 238 253 257 246 253 251 252 258 261 254 252 246 232
253 253 254 249 245 240 235 236 238 240 239 237 235 233 230 232 227 224 227 222 241 250 250 230 225 225 158 247 298 260 248 251 256 257 249 247 254 256
256 258 256 260 256 252 250 248 250 248 240 236 231 234 228 225 226 226 225 222 226 240 251 242 229 227 220 215 274 255 299 264 252 254 255 259 263 263
273 271 275 271 267 265 263 260 252 244 242 239 234 231 230 227 227 233 232 230 230 229 242 253 249 258 248 250 261 273 282 276 273 264 267 256 258 272
307 295 288 284 280 276 271 260 254 248 239 236 236 233 232 232 231 229 230 225 223 231 247 262 254 226 220 227 250 268 283 282 275 269 253 242 235 226
328 316 307 296 283 272 266 263 255 250 245 235 231 229 229 229 231 234 238 240 242 240 240 248 246 237 233 231 241 258 270 288 286 276 261 257 248 242